| time (UTC) | temp C | wind direction | speed KPH | gust KPH | rain 1hr cm | rain 24hr cm | rain mn cm | humidity % | barometer mb |
| 20260906171509 | 19 | 280 | 4.8 | 0.0 | 0.00 | 0.00 | 0.00 | 47 | 1020.2 |
| 20260906170010 | 19 | 290 | 6.4 | 0.0 | 0.00 | 0.00 | 0.00 | 47 | 1020.2 |
| 20260906164510 | 19 | 290 | 6.4 | 0.0 | 0.00 | 0.00 | 0.00 | 47 | 1020.2 |
| 20260906163009 | 19 | 300 | 8.0 | 0.0 | 0.00 | 0.00 | 0.00 | 47 | 1020.2 |
| 20260906161510 | 20 | 300 | 8.0 | 0.0 | 0.00 | 0.00 | 0.00 | 47 | 1020.3 |
| 20260906160010 | 20 | 270 | 11.3 | 0.0 | 0.00 | 0.00 | 0.00 | 47 | 1020.3 |
| 20260906154510 | 20 | 280 | 12.9 | 0.0 | 0.00 | 0.00 | 0.00 | 48 | 1020.3 |
| 20260906153009 | 20 | 280 | 12.9 | 0.0 | 0.00 | 0.00 | 0.00 | 48 | 1020.3 |
| 20260906151509 | 18 | 270 | 17.7 | 0.0 | 0.00 | 0.00 | 0.00 | 49 | 1020.4 |
| 20260906150009 | 18 | 270 | 17.7 | 0.0 | 0.00 | 0.00 | 0.00 | 49 | 1020.4 |
| 20260906144510 | 20 | 270 | 17.7 | 0.0 | 0.00 | 0.00 | 0.00 | 47 | 1020.5 |
| 20260906143009 | 20 | 280 | 17.7 | 0.0 | 0.00 | 0.00 | 0.00 | 47 | 1020.5 |
| 20260906141510 | 18 | 280 | 17.7 | 0.0 | 0.00 | 0.00 | 0.00 | 51 | 1020.6 |
| 20260906140009 | 18 | 300 | 12.9 | 0.0 | 0.00 | 0.00 | 0.00 | 51 | 1020.6 |
| 20260906134510 | 18 | 300 | 12.9 | 0.0 | 0.00 | 0.00 | 0.00 | 52 | 1020.6 |
| 20260906133009 | 18 | 310 | 14.5 | 0.0 | 0.00 | 0.00 | 0.00 | 52 | 1020.6 |
| 20260906131510 | 19 | 310 | 14.5 | 0.0 | 0.00 | 0.00 | 0.00 | 47 | 1020.7 |
| 20260906130009 | 19 | 270 | 17.7 | 0.0 | 0.00 | 0.00 | 0.00 | 47 | 1020.7 |
| 20260906124510 | 19 | 270 | 17.7 | 0.0 | 0.00 | 0.00 | 0.00 | 50 | 1020.7 |
| 20260906123009 | 19 | 280 | 20.9 | 0.0 | 0.00 | 0.00 | 0.00 | 50 | 1020.7 |
| 20260906121510 | 18 | 280 | 20.9 | 0.0 | 0.00 | 0.00 | 0.00 | 51 | 1020.6 |
| 20260906120009 | 18 | 300 | 16.1 | 0.0 | 0.00 | 0.00 | 0.00 | 51 | 1020.6 |
| 20260906114509 | 17 | 300 | 16.1 | 0.0 | 0.00 | 0.00 | 0.00 | 53 | 1020.5 |
| 20260906113010 | 17 | 300 | 16.1 | 0.0 | 0.00 | 0.00 | 0.00 | 53 | 1020.5 |
| 20260906111510 | 17 | 300 | 16.1 | 0.0 | 0.00 | 0.00 | 0.00 | 54 | 1020.3 |
| 20260906110009 | 17 | 280 | 17.7 | 0.0 | 0.00 | 0.00 | 0.00 | 54 | 1020.3 |
| 20260906104509 | 16 | 280 | 17.7 | 0.0 | 0.00 | 0.00 | 0.00 | 58 | 1020.3 |
| 20260906103010 | 16 | 310 | 16.1 | 0.0 | 0.00 | 0.00 | 0.00 | 58 | 1020.3 |
| 20260906101510 | 16 | 280 | 16.1 | 0.0 | 0.00 | 0.00 | 0.00 | 57 | 1020.3 |
| 20260906100009 | 16 | 280 | 16.1 | 0.0 | 0.00 | 0.00 | 0.00 | 57 | 1020.3 |
| 20260906094509 | 16 | 270 | 19.3 | 0.0 | 0.00 | 0.00 | 0.00 | 60 | 1020.3 |
| 20260906093010 | 16 | 270 | 19.3 | 0.0 | 0.00 | 0.00 | 0.00 | 60 | 1020.3 |
| 20260906091509 | 16 | 290 | 17.7 | 0.0 | 0.00 | 0.00 | 0.00 | 63 | 1020.1 |
| 20260906090010 | 16 | 290 | 17.7 | 0.0 | 0.00 | 0.00 | 0.00 | 63 | 1020.1 |
| 20260906084509 | 15 | 290 | 20.9 | 0.0 | 0.00 | 0.00 | 0.00 | 66 | 1019.8 |
| 20260906083010 | 15 | 290 | 20.9 | 0.0 | 0.00 | 0.00 | 0.00 | 66 | 1019.8 |
| 20260906081510 | 15 | 290 | 20.9 | 0.0 | 0.00 | 0.00 | 0.00 | 68 | 1019.4 |
| 20260906080010 | 15 | 300 | 16.1 | 0.0 | 0.00 | 0.00 | 0.00 | 68 | 1019.4 |
| 20260906074509 | 14 | 300 | 16.1 | 0.0 | 0.00 | 0.00 | 0.00 | 73 | 1019.1 |
| 20260906073010 | 14 | 290 | 17.7 | 0.0 | 0.00 | 0.00 | 0.00 | 73 | 1019.1 |
| 20260906071510 | 13 | 290 | 17.7 | 0.0 | 0.00 | 0.00 | 0.00 | 76 | 1018.9 |
| 20260906070009 | 13 | 280 | 16.1 | 0.0 | 0.00 | 0.00 | 0.00 | 76 | 1018.9 |
| 20260906064509 | 12 | 280 | 14.5 | 0.0 | 0.00 | 0.00 | 0.00 | 79 | 1018.6 |
| 20260906063009 | 12 | 280 | 14.5 | 0.0 | 0.00 | 0.00 | 0.00 | 79 | 1018.6 |
| 20260906061509 | 12 | 280 | 14.5 | 0.0 | 0.00 | 0.00 | 0.00 | 82 | 1018.2 |
| 20260906060010 | 12 | 270 | 11.3 | 0.0 | 0.00 | 0.00 | 0.00 | 82 | 1018.2 |
| 20260906054510 | 12 | 270 | 12.9 | 0.0 | 0.00 | 0.00 | 0.00 | 83 | 1017.9 |
| 20260906053009 | 12 | 270 | 12.9 | 0.0 | 0.00 | 0.00 | 0.00 | 83 | 1017.9 |
| 20260906051509 | 12 | 280 | 12.9 | 0.0 | 0.00 | 0.00 | 0.00 | 82 | 1017.7 |
| 20260906050009 | 12 | 280 | 12.9 | 0.0 | 0.00 | 0.00 | 0.00 | 82 | 1017.7 |
| 20260906044510 | 12 | 270 | 12.9 | 0.0 | 0.00 | 0.00 | 0.00 | 82 | 1017.5 |
| 20260906043009 | 12 | 270 | 12.9 | 0.0 | 0.00 | 0.00 | 0.00 | 82 | 1017.5 |
| 20260906041509 | 12 | 270 | 12.9 | 0.0 | 0.00 | 0.00 | 0.00 | 82 | 1017.4 |
| 20260906040009 | 12 | 270 | 12.9 | 0.0 | 0.00 | 0.00 | 0.00 | 82 | 1017.4 |
| 20260906034512 | 12 | 270 | 12.9 | 0.0 | 0.00 | 0.00 | 0.00 | 80 | 1017.1 |
| 20260906033010 | 12 | 280 | 16.1 | 0.0 | 0.00 | 0.00 | 0.00 | 80 | 1017.1 |
| 20260906031510 | 13 | 280 | 16.1 | 0.0 | 0.00 | 0.00 | 0.00 | 80 | 1017.1 |
| 20260906030008 | 13 | 280 | 16.1 | 0.0 | 0.00 | 0.00 | 0.00 | 80 | 1017.1 |
| 20260905204509 | 15 | 280 | 20.9 | 0.0 | 0.00 | 0.00 | 0.00 | 66 | 1014.1 |
| 20260905203009 | 15 | 280 | 20.9 | 0.0 | 0.00 | 0.00 | 0.00 | 66 | 1014.1 |
| 20260905201509 | 15 | 280 | 20.9 | 0.0 | 0.00 | 0.00 | 0.00 | 67 | 1013.8 |
| 20260905200010 | 15 | 290 | 22.5 | 0.0 | 0.00 | 0.00 | 0.00 | 67 | 1013.8 |
| 20260905194509 | 16 | 270 | 12.9 | 0.0 | 0.00 | 0.00 | 0.00 | 66 | 1013.5 |
| 20260905193009 | 16 | 270 | 12.9 | 0.0 | 0.00 | 0.00 | 0.00 | 66 | 1013.5 |
| 20260905191510 | 16 | 270 | 12.9 | 0.0 | 0.00 | 0.00 | 0.00 | 65 | 1013.1 |
| 20260905190009 | 16 | 290 | 16.1 | 0.0 | 0.00 | 0.00 | 0.00 | 65 | 1013.1 |
| 20260905184509 | 16 | 290 | 16.1 | 0.0 | 0.00 | 0.00 | 0.00 | 66 | 1012.6 |
| 20260905183010 | 16 | 270 | 16.1 | 0.0 | 0.00 | 0.00 | 0.00 | 66 | 1012.6 |
| 20260905181509 | 17 | 270 | 16.1 | 0.0 | 0.00 | 0.00 | 0.00 | 66 | 1012.2 |
| 20260905180010 | 17 | 280 | 20.9 | 0.0 | 0.00 | 0.00 | 0.00 | 66 | 1012.2 |
| 20260905174509 | 16 | 280 | 20.9 | 0.0 | 0.00 | 0.00 | 0.00 | 69 | 1012.0 |
| 20260905173010 | 16 | 280 | 17.7 | 0.0 | 0.00 | 0.00 | 0.00 | 69 | 1012.0 |